Location: Newark
(16.3678°N, 77.8722°E)
Time: 04:13:57
(UTC+00:00)

Courier 1B - All Passes

Search period start: 12 December 2019 00:00
Search period end: 22 December 2019 00:00
Orbit: 963 x 1209 km, 28.3° (Epoch: 11 December)

Date Brightness Start Highest point End Pass type
(mag) Time Alt. Az. Time Alt. Az. Time Alt. Az.
12 Dec - 10:52:37 10° S 10:56:52 18° SSE 11:01:15 10° ESE daylight
12 Dec - 12:44:00 10° SW 12:50:41 65° SSE 12:57:50 10° ENE visible
12 Dec - 14:38:15 10° W 14:45:04 51° NNW 14:52:20 10° ENE visible
12 Dec - 16:33:45 10° WNW 16:40:18 33° N 16:47:08 10° ENE visible
12 Dec - 18:28:44 10° NW 18:35:49 39° NNE 18:43:02 10° ENE night (unlit)
12 Dec - 20:23:00 10° WNW 20:30:50 75° NNE 20:38:40 10° ESE visible
12 Dec - 22:17:56 10° W 22:25:12 41° SSW 22:32:17 10° SE visible
13 Dec - 00:17:49 10° SW 00:19:23 11° SSW 00:20:56 10° SSW visible
13 Dec - 10:01:09 10° SSE 10:03:08 11° SSE 10:05:08 10° SE daylight
13 Dec - 11:50:37 10° SW 11:56:56 47° SSE 12:03:36 10° ENE daylight
13 Dec - 13:44:17 10° W 13:51:04 62° NNW 13:58:20 10° ENE visible
13 Dec - 15:39:36 10° WNW 15:46:04 35° N 15:52:53 10° ENE visible
13 Dec - 17:34:48 10° WNW 17:41:34 35° N 17:48:34 10° ENE night (unlit)
13 Dec - 19:29:05 10° WNW 19:36:44 61° NNE 19:44:30 10° E night (unlit)
13 Dec - 21:23:37 10° WNW 21:31:16 56° SSW 21:38:49 10° SE visible
13 Dec - 23:20:51 10° WSW 23:25:26 17° SSW 23:29:57 10° S visible
14 Dec - 10:57:27 10° SSW 11:03:14 33° SSE 11:09:16 10° E daylight
14 Dec - 12:50:27 10° WSW 12:57:10 78° NNW 13:04:20 10° ENE visible
14 Dec - 14:45:28 10° WNW 14:51:54 38° N 14:58:44 10° NE visible
14 Dec - 16:40:49 10° WNW 16:47:19 33° N 16:54:05 10° ENE night (unlit)
14 Dec - 18:35:14 10° WNW 18:42:36 50° NNE 18:50:12 10° E night (unlit)
14 Dec - 20:29:29 10° WNW 20:37:17 73° SSW 20:45:06 10° SE visible
14 Dec - 22:25:31 10° W 22:31:31 24° SSW 22:37:25 10° SSE visible
15 Dec - 10:04:33 10° SSW 10:09:32 23° SSE 10:14:39 10° E daylight
15 Dec - 11:56:45 10° WSW 12:03:22 81° SSE 12:10:21 10° ENE daylight
15 Dec - 13:51:22 10° W 13:57:49 43° NNW 14:04:41 10° NE visible
15 Dec - 15:46:48 10° WNW 15:53:04 32° N 15:59:40 10° ENE visible
15 Dec - 17:41:25 10° NW 17:48:26 42° NNE 17:55:45 10° E night (unlit)
15 Dec - 19:35:31 10° WNW 19:43:16 88° NNE 19:51:11 10° ESE night (unlit)
15 Dec - 21:30:45 10° W 21:37:34 33° SSW 21:44:22 10° SSE visible
16 Dec - 09:12:07 10° S 09:15:50 16° SSE 09:19:35 10° ESE daylight
16 Dec - 11:03:13 10° SW 11:09:37 60° SSE 11:16:18 10° ENE daylight
16 Dec - 12:57:21 10° W 13:03:49 51° NNW 13:10:42 10° ENE visible
16 Dec - 14:52:45 10° WNW 14:58:52 32° N 15:05:21 10° ENE visible
16 Dec - 16:47:36 10° NW 16:54:15 37° N 17:01:15 10° ENE night (unlit)
16 Dec - 18:41:39 10° WNW 18:49:14 71° NNE 18:57:04 10° ESE night (unlit)
16 Dec - 20:36:19 10° W 20:43:37 44° SSW 20:51:00 10° SE visible
16 Dec - 22:34:57 10° SW 22:37:55 12° SSW 22:40:51 10° S visible
17 Dec - 10:09:51 10° SW 10:15:55 43° SSE 10:22:09 10° E daylight
17 Dec - 12:03:25 10° WSW 12:09:55 64° NNW 12:16:47 10° ENE daylight
17 Dec - 13:58:39 10° WNW 14:04:44 34° N 14:11:09 10° NE visible
17 Dec - 15:53:44 10° NW 16:00:04 33° N 16:06:44 10° ENE visible
17 Dec - 17:47:51 10° WNW 17:55:09 57° NNE 18:02:49 10° E night (unlit)
17 Dec - 19:42:09 10° WNW 19:49:40 59° SSW 19:57:23 10° SE night (unlit)
17 Dec - 21:38:53 10° WSW 21:43:56 18° SSW 21:48:58 10° S visible
18 Dec - 09:16:42 10° SSW 09:22:15 30° SSE 09:27:52 10° E daylight
18 Dec - 11:09:36 10° WSW 11:16:06 82° NNW 11:22:53 10° ENE daylight
18 Dec - 13:04:33 10° WNW 13:10:39 37° NNW 13:17:05 10° NE visible
18 Dec - 14:59:51 10° WNW 15:05:54 31° N 15:12:16 10° ENE visible
18 Dec - 16:54:06 10° NW 17:01:05 47° NNE 17:08:25 10° E night (unlit)
18 Dec - 18:48:09 10° WNW 18:55:41 76° SSW 19:03:32 10° ESE night (unlit)
18 Dec - 20:43:49 10° W 20:49:58 26° SSW 20:56:10 10° SSE visible
19 Dec - 08:23:49 10° SSW 08:28:34 21° SSE 08:33:18 10° E daylight
19 Dec - 10:15:55 10° WSW 10:22:21 76° SSE 10:28:59 10° ENE daylight
19 Dec - 12:10:29 10° W 12:16:40 43° NNW 12:23:08 10° NE daylight
19 Dec - 14:05:53 10° WNW 14:11:44 30° N 14:17:54 10° ENE visible
19 Dec - 16:00:24 10° NW 16:06:59 40° NNE 16:13:56 10° E visible
19 Dec - 17:54:17 10° WNW 18:01:43 85° NNE 18:09:31 10° ESE night (unlit)
19 Dec - 19:49:14 10° W 19:56:00 35° SSW 20:02:58 10° SSE night (unlit)
20 Dec - 07:31:26 10° S 07:34:50 15° SSE 07:38:12 10° ESE daylight
20 Dec - 09:22:21 10° SW 09:28:40 56° SSE 09:35:02 10° ENE daylight
20 Dec - 11:16:28 10° W 11:22:45 52° NNW 11:29:17 10° ENE daylight
20 Dec - 13:11:52 10° WNW 13:17:38 30° N 13:23:40 10° NE visible
20 Dec - 15:06:40 10° NW 15:12:52 34° N 15:19:25 10° ENE visible
20 Dec - 17:00:33 10° WNW 17:07:43 67° NNE 17:15:20 10° ESE night (unlit)
20 Dec - 18:54:58 10° W 19:02:04 46° SSW 19:09:28 10° SE night (unlit)
20 Dec - 20:52:53 10° WSW 20:56:24 13° SSW 20:59:56 10° S visible
21 Dec - 08:28:57 10° SW 08:34:59 40° SSE 08:40:58 10° E daylight
21 Dec - 10:22:30 10° WSW 10:28:55 66° NNW 10:35:29 10° ENE daylight
21 Dec - 12:17:46 10° WNW 12:23:34 33° N 12:29:36 10° NE daylight
21 Dec - 14:12:52 10° NW 14:18:46 31° N 14:24:58 10° ENE visible
21 Dec - 16:06:52 10° WNW 16:13:44 54° NNE 16:21:02 10° E visible
21 Dec - 18:00:56 10° WNW 18:08:09 61° SSW 18:15:45 10° SE night (unlit)
21 Dec - 19:57:16 10° WSW 20:02:24 19° SSW 20:07:39 10° SSE night (unlit)
